Home   Weather   West Covina   Past weeks

Flag for USA Past Weather in West Covina, California, USA — Yesterday and Last 2 Weeks

Now
63 °F

Overcast.


Feels Like: 63 °F
Forecast: 62 / 83 °F
Wind: No wind

Location: Fullerton Municipal Airport

Current Time: Jun 28, 2017 at 6:59:53 am

Latest Report: Jun 28, 2017 at 5:53 am


Visibility: 10 mi

Pressure: 29.86 "Hg

Humidity: 87%

Dew Point: 59 °F

Location of West CovinaLocation

Past Weather in West Covina — Graph

°F

West Covina Temperature Yesterday

Maximum temperature yesterday: 89 °F (at 12:53 pm)
Minimum temperature yesterday: 66 °F (at 11:53 pm)
Average temperature yesterday: 76 °F

High & Low Weather Summary for the Past Weeks

 TemperatureHumidityPressure
High95 °F (Jun 25, 12:53 pm)97% (Jun 19, 5:29 am)29.95 "Hg (Jun 19, 5:29 am)
Low58 °F (Jun 13, 5:53 am)24% (Jun 27, 1:53 pm)29.67 "Hg (Jun 21, 5:53 pm)
Average73 °F67%29.84 "Hg
* Reported Jun 13 5:53 am — Jun 28 5:53 am, West Covina. Weather by CustomWeather, © 2017

Note: Actual official high and low records may vary slightly from our data, if they occured in-between our weather recording intervals... More about our weather records

Advertising

West Covina Weather History for the Previous 24 Hours

Scroll right to see more
 ConditionsComfort  
Time TempWeatherWind HumidityBarometerVisibility
5:53 am
Wed, Jun 28
63 °FOvercast.No wind87%29.86 "Hg10 mi
4:53 am63 °FOvercast.3 mph90%29.85 "Hg10 mi
4:14 am63 °FOvercast.3 mph90%29.85 "Hg10 mi
3:53 am63 °FLow clouds.5 mph90%29.85 "Hg10 mi
3:27 am63 °FLow clouds.3 mph93%29.85 "Hg10 mi
3:04 am64 °FPassing clouds.3 mph90%29.85 "Hg10 mi
1:53 am64 °FPassing clouds.5 mph90%29.85 "Hg10 mi
12:53 am65 °FClear.5 mph87%29.85 "Hg10 mi
11:53 pm
Tue, Jun 27
66 °FClear.6 mph81%29.86 "Hg10 mi
10:53 pm67 °FClear.6 mph81%29.86 "Hg10 mi
9:53 pm68 °FClear.6 mph78%29.85 "Hg10 mi
8:53 pm70 °FClear.6 mph73%29.83 "Hg10 mi
7:53 pm74 °FSunny.5 mph62%29.81 "Hg10 mi
6:53 pm80 °FSunny.6 mph41%29.80 "Hg10 mi
5:53 pm81 °FSunny.10 mph35%29.81 "Hg10 mi
4:53 pm84 °FSunny.12 mph33%29.82 "Hg10 mi
3:53 pm87 °FSunny.9 mph32%29.83 "Hg10 mi
2:53 pm88 °FSunny.12 mph27%29.84 "Hg10 mi
1:53 pm88 °FSunny.6 mph24%29.85 "Hg10 mi
12:53 pm89 °FSunny.9 mph29%29.86 "Hg10 mi
11:53 am84 °FSunny.3 mph38%29.87 "Hg10 mi
10:53 am80 °FSunny.7 mph49%29.88 "Hg10 mi
9:53 am79 °FSunny.6 mph50%29.88 "Hg10 mi
8:53 am78 °FSunny.6 mph50%29.88 "Hg10 mi
7:53 am73 °FSunny.No wind57%29.87 "Hg10 mi
6:53 am70 °FSunny.No wind64%29.86 "Hg10 mi
Weather by CustomWeather, © 2017

See weather overviewHow to use our weather pages